Regional Weather Roundup
Issued by NWS Green Bay, WI

Home | Current Version | Previous Version | Graphics & Text | Print | Product List | Glossary Off
Versions: 1 2 3 4 5 6 7 8 9 10 11 12 13 14 15 16 17 18 19 20 21 22 23 24 25 26 27 28 29 30 31 32 33 34 35 36 37 38 39 40 41 42 43 44 45 46 47 48 49 50

000
ASUS43 KGRB 120659
RWRGRB

NORTH-CENTRAL AND NORTHEAST WISCONSIN REGIONAL WEATHER ROUNDUP
NATIONAL WEATHER SERVICE GREEN BAY WI
200 AM CDT SAT JUL 12 2014

WIZ005-009-010>012-018-019-120800-
NORTH CENTRAL WISCONSIN

CITY           SKY/WX    TMP DP  RH WIND       PRES   REMARKS
IRONWOOD       PTCLDY    68  63  83 SW7       29.97F
MANITOWISH WTR NOT AVBL
ARBOR VITAE    NOT AVBL
EAGLE RIVER    NOT AVBL
LAND O LAKES   NOT AVBL
RHINELANDER    MOCLDY    65  61  87 SW7       30.05F
PHILLIPS       NOT AVBL
ANTIGO         NOT AVBL
TOMAHAWK       NOT AVBL
MERRILL        NOT AVBL
$$

WIZ013-073-120800-
NORTHEAST WISCONSIN

CITY           SKY/WX    TMP DP  RH WIND       PRES   REMARKS
IRON MOUNTAIN  PTCLDY    66  57  72 S6        30.01F
MARINETTE      CLOUDY    68  57  68 SW7       30.03S
$$

WIZ017-030-035>037-045-120800-
CENTRAL WISCONSIN

CITY           SKY/WX    TMP DP  RH WIND       PRES   REMARKS
MEDFORD        NOT AVBL
WAUSAU         MOCLDY    68  61  78 S5        30.03F
MOSINEE        NOT AVBL
MARSHFIELD     CLOUDY    66  63  90 SW5       30.05F
WISC RAPIDS    CLEAR     66  61  84 S3        30.06S
STEVENS POINT  NOT AVBL
WAUPACA        NOT AVBL
SHAWANO        NOT AVBL
CLINTONVILLE   NOT AVBL
$$

WIZ038-039-048-051-120800-
FOX VALLEY

CITY           SKY/WX    TMP DP  RH WIND       PRES   REMARKS
NWS GREEN BAY  CLEAR     66  58  75 S6        30.04F
APPLETON       NOT AVBL
OSHKOSH        PTCLDY    67  59  75 S9        30.04F
FOND DU LAC    CLEAR     65  58  78 S9        30.05F
$$

WIZ022-050-052-120800-
EAST CENTRAL WISCONSIN

CITY           SKY/WX    TMP DP  RH WIND       PRES   REMARKS
STURGEON BAY   CLOUDY    66  55  68 S7        30.05F
MANITOWOC      NOT AVBL
SHEBOYGAN      CLEAR     62  56  80 S6        30.06F
$$

LMZ563-521-522-541>543-120800-
LAKESHORE

STATION/POSITION TIME  TEMP    WIND        PRES    VSBY  WAVE
                       AIR SEA DIR/SP/G                  HT/PER
                 (UTC) (F)     (DEG/KT/KT) (MB)    (MI)  (FT/S)
SHEBOYGAN LKSHOR 0600   67     190/  9/  9 1018.9F
KEWAUNEE LKSHORE 0600   52     180/  5/  6 1018.6F
NORTHPORT PIER   0600   62     150/  6/  8 1017.3F
N MID LAKE BUOY  0600   58 53  210/ 14/ 16 1017.5S         2/ 5
MENOMINEE LKSHOR 0600   70     200/  7/  9 1017.8F
$$


USA.gov is the U.S. government's official web portal to all federal, state and local government web resources and services.